Tracking 30298 objects as of 26-Apr-2025
HD Live streaming from Space Station
objects crossing your sky now

STARLINK-30931

Track STARLINK-30931 now!
10-day predictions
STARLINK-30931 is classified as:


NORAD ID: 58413
Int'l Code: 2023-180M
Perigee: 565.5 km
Apogee: 567.0 km
Inclination: 43.0 °
Period: 95.8 minutes
Semi major axis: 6937 km
RCS: Unknown
Launch date: November 22, 2023
Source: United States (US)
Launch site: AIR FORCE EASTERN TEST RANGE (AFETR)
Your satellite tracking list
Your tracking list is empty




NASA's NSSDC Master Catalog

Two Line Element Set (TLE):
1 58413U 23180M   25115.94850019 -.00001534  00000-0 -98578-4 0  9991
2 58413  43.0039 330.1134 0001077 272.1238  87.9481 15.02524692 79938
Source of the keplerian elements: AFSPC